Theta_e
350 344 345 346 347 345 342 342 344 345 346 345 342 342 341 336 327 328 326 326 324 326 332 333 331 329 324 322 323 324 330 333 332 330 328 328 327 325 323 323 330 334 323
350 339 343 346 347 343 339 339 343 345 346 345 343 343 342 335 327 327 326 325 330 327 327 331 330 325 322 323 324 328 332 334 333 332 330 330 329 329 328 325 327 326 323
351 336 343 346 344 340 337 339 341 344 345 344 344 343 339 332 326 326 325 333 333 333 332 331 328 322 324 325 324 328 334 334 333 332 337 343 341 330 330 329 327 324 323
344 335 343 345 342 337 337 339 342 342 344 344 343 340 334 330 326 327 325 332 334 333 327 321 322 324 326 325 326 329 331 335 334 334 344 341 340 329 330 330 330 329 328
345 340 341 343 339 335 336 339 339 339 340 340 338 334 331 327 325 326 325 323 324 321 320 320 322 325 326 325 330 336 336 335 333 339 343 342 344 336 329 330 330 330 330
348 348 340 341 338 333 332 336 337 337 336 334 333 331 328 324 324 325 324 322 322 322 321 322 323 325 326 325 327 333 336 335 334 343 339 337 335 334 329 328 330 331 331
348 349 341 340 336 331 329 330 333 334 333 332 331 328 323 322 324 324 323 322 323 323 322 323 323 325 325 325 324 326 331 335 337 341 338 334 340 333 333 331 328 330 331
348 350 340 338 333 329 330 332 333 332 331 330 327 322 321 323 324 324 323 323 323 322 322 322 323 324 325 325 325 326 326 329 334 340 339 335 332 332 334 334 332 329 329
349 350 339 336 331 330 331 332 331 331 328 325 323 321 322 324 324 324 322 324 323 322 321 320 322 323 324 324 325 325 325 324 324 335 336 333 332 330 333 333 334 332 329
348 348 346 336 331 331 332 333 333 331 326 323 322 322 323 324 323 322 323 324 323 323 322 320 320 321 321 322 322 322 322 322 321 331 330 328 326 329 329 333 334 334 333
347 348 346 344 342 342 341 334 334 333 330 325 323 323 323 323 323 323 324 324 324 324 323 321 321 320 319 319 319 320 320 323 328 328 327 324 320 326 329 331 333 333 334
346 347 346 345 344 343 343 343 335 336 335 333 327 323 325 338 340 340 336 325 324 323 323 322 322 321 321 324 328 321 320 325 327 326 327 323 319 321 321 329 332 333 334
346 346 346 348 347 345 344 346 344 345 344 341 337 333 331 340 337 327 337 325 322 322 323 329 324 323 333 332 331 330 329 328 327 326 325 320 320 327 326 325 331 332 334
347 347 348 349 346 344 345 346 346 346 346 347 344 339 341 340 345 343 341 342 340 340 340 339 338 339 336 327 329 331 331 330 328 327 326 322 319 321 330 330 328 331 332
349 349 349 349 342 339 343 346 347 347 347 348 348 341 343 347 347 347 347 347 346 346 346 347 346 347 346 346 344 343 341 339 333 330 329 324 321 320 319 321 332 331 334
351 351 350 351 346 338 339 346 348 348 347 348 348 348 340 345 347 347 347 346 346 346 345 345 345 346 346 345 345 346 345 344 343 341 337 335 325 322 320 319 320 331 336
351 353 352 351 349 339 338 341 346 350 348 349 349 349 347 341 347 339 347 347 347 348 347 347 346 346 346 346 346 346 345 344 342 342 335 335 338 331 324 322 320 319 325
335 351 354 353 352 344 344 348 351 352 352 351 350 350 348 345 338 337 341 348 349 350 350 350 350 349 349 348 348 348 348 348 347 345 341 338 337 338 337 327 324 323 320
322 338 349 350 350 347 345 350 349 351 350 352 352 350 350 346 337 337 347 351 350 350 351 351 350 348 347 346 345 345 346 347 347 347 346 345 342 332 335 337 331 325 324
320 318 323 339 340 340 345 345 352 352 352 353 353 351 345 337 340 345 350 351 349 350 345 344 340 343 343 342 342 340 342 342 343 345 345 344 344 344 343 340 338 336 329
320 318 320 322 323 324 328 340 349 350 351 352 353 351 348 348 350 345 350 348 344 340 340 340 339 339 337 337 338 338 336 338 341 342 343 343 342 342 343 343 342 339 338
318 318 319 321 321 322 326 330 346 349 350 351 351 350 348 348 347 347 345 338 333 333 329 329 333 332 330 331 334 334 332 331 333 335 339 341 342 342 341 342 343 342 341
319 319 319 319 321 323 330 339 337 347 345 348 350 350 350 348 344 333 322 321 323 316 326 330 325 326 324 325 328 329 328 328 328 330 336 338 341 341 341 341 342 342 340
318 317 324 326 327 327 327 334 339 343 343 344 346 345 338 329 321 317 314 314 313 323 325 324 322 319 324 323 324 326 329 330 330 330 328 330 334 340 339 340 341 341 341
323 331 331 328 328 331 331 338 340 341 340 335 330 324 320 318 314 314 314 315 314 314 321 314 315 315 319 322 322 323 324 327 329 332 332 330 330 330 331 335 337 340 340
320 325 325 327 332 335 336 333 328 329 328 326 324 324 323 323 322 317 318 316 315 315 315 317 315 314 314 317 320 322 323 324 325 326 327 328 330 330 331 332 332 336 337
Wind_Speed
17 21 22 21 22 21 20 19 20 21 22 19 17 14 12 10 11 14 16 16 15 16 15 13 10 9 8 10 10 11 11 11 11 12 12 12 12 12 12 10 12 5 7
21 21 23 23 23 22 20 19 21 22 22 19 17 15 12 9 11 14 15 15 15 14 14 11 9 8 9 10 10 11 10 9 10 11 11 13 12 12 11 10 10 4 6
22 23 23 24 24 22 20 20 22 23 22 20 18 14 11 10 12 15 15 16 15 13 12 10 8 8 9 8 9 9 8 7 8 8 11 7 4 10 11 10 8 7 7
22 24 24 24 24 22 21 21 22 22 22 20 17 13 12 11 13 15 15 15 14 12 10 9 8 8 7 7 7 7 6 5 6 6 10 3 4 7 9 10 8 8 7
22 24 24 23 22 22 21 22 22 21 20 18 15 14 12 12 14 15 15 14 13 11 9 9 8 7 6 5 6 6 6 5 4 5 1 1 2 4 5 8 8 7 6
22 22 23 22 21 21 20 21 21 20 19 17 15 14 13 13 15 16 14 13 12 10 8 8 7 6 5 4 5 4 4 2 1 3 3 3 1 2 3 4 5 5 5
22 21 24 23 20 19 19 19 19 19 17 16 14 13 13 14 15 15 13 12 10 9 7 7 6 5 4 3 3 4 4 3 1 4 4 4 3 4 2 3 3 3 4
22 21 24 23 21 19 19 18 18 17 15 14 13 13 13 15 15 14 13 11 10 8 7 7 7 6 6 6 6 6 7 7 6 7 7 5 6 4 4 4 3 3 2
21 21 24 23 23 21 20 18 16 14 13 13 12 13 14 14 15 14 13 11 10 9 9 8 8 8 8 8 9 9 10 10 9 8 9 8 10 7 7 7 5 5 5
21 20 21 24 23 23 22 19 16 14 12 12 12 13 14 15 15 14 13 12 10 10 9 9 9 9 10 10 11 11 12 11 12 10 10 10 12 12 10 9 8 8 6
20 20 20 20 21 21 20 21 18 16 13 13 13 14 14 15 15 15 14 13 12 11 10 10 10 10 11 12 13 13 13 12 12 11 11 15 13 15 14 14 12 9 9
21 21 20 20 20 21 19 20 21 19 17 16 15 16 16 13 13 13 14 14 14 13 12 12 11 12 13 12 12 14 14 12 13 14 13 18 15 15 17 15 16 13 11
19 20 20 21 21 21 19 18 19 18 17 18 18 17 16 14 14 15 12 14 15 14 13 13 13 13 11 11 12 12 13 14 14 15 16 21 19 18 18 18 18 17 16
17 19 20 21 23 23 19 19 19 19 18 17 19 20 18 17 15 14 12 12 12 10 11 12 11 12 14 16 16 16 16 16 16 17 18 22 21 21 21 20 22 21 19
16 18 20 21 24 25 26 19 20 19 19 17 18 21 20 17 16 15 15 14 13 12 12 12 13 14 14 16 17 17 18 20 23 23 22 25 23 23 24 24 22 25 22
16 17 19 20 22 25 27 24 20 19 18 18 18 18 22 19 17 15 15 14 13 13 13 14 15 15 17 17 19 20 21 22 22 24 25 23 28 27 26 28 27 27 26
20 18 20 21 22 24 25 24 22 19 20 19 18 19 20 21 18 17 14 14 12 12 13 15 16 17 17 18 19 20 21 22 24 25 29 29 25 29 31 32 31 29 30
15 21 20 20 22 24 23 22 21 19 19 19 18 18 20 20 19 17 15 12 12 12 13 13 13 15 16 18 19 20 21 21 22 23 25 26 27 26 28 33 33 31 31
19 18 18 20 21 23 25 23 23 22 21 18 18 18 19 19 19 17 14 12 16 12 13 14 14 16 17 19 21 22 23 24 24 24 26 26 29 32 30 29 36 34 33
19 21 23 20 22 22 19 21 19 19 19 19 19 18 21 20 18 18 14 14 16 12 13 14 15 14 18 19 22 25 25 27 28 28 28 28 28 29 28 29 28 30 33
21 21 22 21 22 24 22 20 19 20 18 18 19 18 17 16 16 17 13 14 14 13 13 14 15 15 18 18 22 24 26 27 28 28 28 28 29 29 27 27 28 27 27
24 21 24 22 27 25 22 20 15 16 15 15 15 16 17 17 17 15 15 15 14 12 17 15 14 14 18 17 21 23 28 27 25 27 26 25 25 25 26 26 25 27 27
27 18 25 36 36 28 21 20 21 15 15 15 14 14 15 16 17 16 16 15 17 16 13 15 13 14 16 17 19 22 24 27 27 24 22 23 21 21 22 23 23 24 27
34 27 27 32 29 25 25 18 17 13 12 12 13 13 14 15 16 16 16 16 17 12 14 13 12 12 13 17 18 20 23 26 29 32 28 28 26 23 26 24 23 24 26
14 18 21 22 20 20 17 14 12 12 10 8 10 12 14 16 16 16 18 17 17 16 15 15 16 16 14 16 17 18 22 25 24 27 31 30 29 29 29 27 26 26 27
15 14 14 13 12 11 12 14 14 10 9 8 8 9 10 13 15 19 20 21 21 21 21 20 20 21 20 17 17 17 20 22 24 26 30 30 30 30 27 26 28 28 27
Wind_Direction
164 175 176 172 171 171 174 176 181 178 171 164 157 152 148 144 145 150 146 142 142 152 156 148 143 136 130 124 117 108 103 92 90 85 87 88 88 85 80 75 83 63 69
162 176 176 174 173 172 173 175 178 175 172 167 164 163 158 155 153 153 151 149 151 151 156 154 148 139 131 125 119 115 108 97 86 82 85 75 77 82 83 80 90 94 71
161 173 179 175 175 174 174 175 176 174 174 172 171 168 170 168 162 159 155 152 154 155 157 159 154 142 133 127 128 129 116 102 82 80 78 77 67 71 75 74 75 72 70
165 172 181 177 177 176 174 174 174 175 177 177 176 179 178 176 170 166 160 159 160 165 169 167 157 146 138 132 135 137 132 115 88 76 53 83 87 65 75 76 72 71 67
162 171 179 180 181 178 175 175 177 178 179 182 185 187 188 183 175 172 169 166 168 172 171 166 161 156 149 142 139 134 132 127 98 75 30 43 83 331 55 72 74 71 59
160 169 175 178 183 181 179 179 181 182 185 186 191 195 196 185 178 176 175 172 168 172 172 169 170 172 167 161 159 159 157 143 126 20 321 315 10 236 41 64 63 59 57
162 167 175 178 182 183 182 183 183 186 189 193 198 203 197 184 179 179 179 175 174 177 180 181 185 193 193 196 198 208 224 235 260 278 293 317 297 292 348 16 33 43 47
165 167 178 179 181 184 185 187 186 188 194 200 202 202 192 184 181 184 187 187 183 186 193 199 201 210 218 221 225 232 240 247 257 283 282 287 285 290 300 323 335 336 327
168 168 180 182 182 184 186 190 190 192 200 200 198 195 190 188 187 192 195 197 198 200 205 211 216 220 227 234 240 245 249 254 261 266 275 281 271 284 295 292 294 296 294
170 175 177 184 184 186 188 189 193 196 197 196 195 193 191 194 195 198 203 208 212 215 217 223 228 234 241 246 250 255 261 268 273 267 272 266 272 271 280 279 276 283 287
176 181 179 180 182 183 190 192 193 197 196 195 196 196 197 200 203 208 212 216 222 228 233 240 245 247 250 255 258 261 267 270 259 268 262 270 282 279 274 272 273 269 275
182 185 185 183 186 185 190 195 196 201 202 201 201 202 202 201 209 209 225 226 232 237 242 248 253 259 265 262 273 268 268 255 263 267 267 269 270 273 275 268 272 270 271
189 189 190 188 191 188 190 196 194 199 199 205 207 211 204 211 220 221 225 236 239 244 248 263 257 261 255 249 257 259 260 264 267 266 266 277 276 274 271 267 262 265 266
198 196 195 197 200 196 195 199 202 200 201 205 211 218 214 218 220 217 225 230 237 235 245 247 251 254 256 270 267 262 264 267 268 270 272 275 276 273 271 270 266 262 264
210 206 203 202 208 209 202 206 204 205 208 209 212 223 220 220 224 228 229 230 234 241 247 252 257 259 263 268 269 267 267 267 273 274 271 274 274 273 271 272 268 265 260
225 218 211 210 214 214 216 208 209 212 214 212 217 219 228 225 227 230 236 240 241 245 250 254 259 260 265 266 266 268 269 268 268 267 269 270 272 268 266 265 263 261 264
241 228 220 216 219 222 222 223 220 219 215 218 221 225 230 232 232 237 236 237 238 243 250 256 261 265 267 269 270 270 270 269 268 267 269 269 268 272 264 263 265 263 260
251 236 221 218 220 230 226 225 222 220 222 220 221 221 226 229 234 239 233 235 237 241 248 256 260 265 267 270 272 270 267 267 268 267 269 266 264 264 267 269 264 262 261
282 246 229 222 220 227 230 226 230 229 228 225 224 221 225 224 230 227 226 235 242 240 247 252 259 264 267 273 276 277 276 275 273 271 266 264 266 266 261 261 267 265 261
281 254 246 231 225 229 229 230 225 226 226 222 224 221 227 227 225 226 227 231 245 246 249 268 268 262 269 277 278 275 271 270 269 268 268 268 265 264 263 262 257 264 264
271 264 241 235 231 227 226 224 221 225 223 221 220 217 217 214 220 231 227 241 243 245 250 251 264 276 278 278 277 281 281 276 274 272 271 267 264 262 260 258 261 259 255
281 266 242 230 237 234 227 224 217 217 217 214 217 220 220 220 223 227 229 236 246 249 269 268 269 273 277 279 282 287 288 288 279 274 273 271 271 266 262 261 256 256 255
289 251 233 232 230 225 215 210 215 201 205 206 208 215 223 219 221 225 245 246 253 263 255 268 277 277 283 281 273 274 285 282 291 281 272 277 271 271 270 268 263 258 262
274 246 232 225 223 218 221 218 217 213 218 215 216 207 219 222 235 246 251 256 261 248 247 260 272 274 276 287 286 280 273 278 284 287 276 272 272 271 276 275 269 265 261
231 211 213 218 219 218 222 219 232 225 219 205 196 220 230 243 245 250 256 252 255 259 258 261 260 274 272 277 284 286 282 279 279 276 281 280 275 273 273 273 275 268 264
214 210 214 215 220 207 190 187 183 189 194 204 225 235 241 244 251 254 254 258 261 261 259 263 265 270 274 269 270 274 280 281 282 281 282 281 281 283 277 276 271 274 275